Flag for China Weather past 2 weeks in Shantou, Guangdong, China

Now
91 °F

Partly sunny.


Feels Like: 100 °F
Forecast: 81 / 95 °F
Wind: 15 mph from East

Location: Shantou Airport

Current Time: Aug 1, 2014 at 5:56:30 PM

Latest Report: Aug 1, 2014 at 5:00 PM


Visibility: N/A

Pressure: 29.45 "Hg

Humidity: 56%

Dew point: 73 °F

Location of ShantouLocation

Historic Weather in Shantou — Graph

°F

Shantou temperature yesterday

Maximum temperature yesterday: 100 °F (at 3:00 PM)
Minimum temperature yesterday: 81 °F (at 4:00 AM)
Average temperature yesterday: 90 °F

Past Weeks' High & Low Weather Summary

 TemperatureHumidityPressure
High100 °F (Jul 31, 3:00 PM)100% (Jul 18, 7:00 AM)29.89 "Hg (Jul 18, 7:00 AM)
Low77 °F (Jul 24, 1:00 AM)44% (Jul 22, 2:00 PM)29.36 "Hg (Jul 23, 4:00 PM)
Average86 °F78%29.68 "Hg
* Reported Jul 17 4:00 PM — Aug 1 4:00 PM, Shantou, Weather by CustomWeather, © 2014

Note: Actual official high and low records may vary slightly from our data, if they occured in-between our weather recording intervals... More about our weather records

Advertising

Shantou weather history for previous 24 hours

 ConditionsComfort  
Time TempWeatherWind HumidityBarometerVisibility
4:00 PM
Aug 1
91 °FPartly sunny.17 mph52%29.45 "HgN/A
3:00 PM100 °FPartly sunny.1 mph47%29.45 "HgN/A
2:00 PM99 °FPartly sunny.3 mph50%29.45 "HgN/A
1:00 PM95 °FScattered clouds.6 mph60%29.47 "Hg5 mi
12:00 PM97 °FClear.1 mph56%29.50 "Hg5 mi
11:00 AM93 °FPassing clouds.3 mph59%29.50 "HgN/A
10:00 AM91 °FSunny.3 mph63%29.53 "Hg10 mi
9:00 AM88 °FPassing clouds.8 mph66%29.56 "HgN/A
8:00 AM86 °FClear.3 mph70%29.56 "Hg5 mi
7:00 AM84 °FPartly sunny.8 mph74%29.53 "Hg4 mi
6:00 AM84 °FFog.3 mph89%29.53 "Hg2 mi
5:00 AM82 °FPassing clouds.3 mph94%29.53 "Hg5 mi
4:00 AM84 °FPassing clouds.6 mph84%29.53 "HgN/A
3:00 AM84 °FPassing clouds.6 mph84%29.53 "HgN/A
2:00 AM84 °FPassing clouds.6 mph84%29.50 "HgN/A
1:00 AM84 °FPassing clouds.6 mph84%29.50 "HgN/A
12:00 AM84 °FPassing clouds.6 mph84%29.53 "HgN/A
11:00 PM
Jul 31
86 °FPassing clouds.3 mph79%29.56 "HgN/A
10:00 PM90 °FClear.3 mph79%29.53 "Hg4 mi
9:00 PM90 °FClear.3 mph79%29.53 "Hg5 mi
8:00 PM93 °FClear.8 mph67%29.50 "Hg5 mi
7:00 PM95 °FPassing clouds.3 mph53%29.50 "Hg4 mi
6:00 PM99 °FPassing clouds.3 mph50%29.47 "HgN/A
5:00 PM100 °FPassing clouds.6 mph47%29.47 "HgN/A
Weather by CustomWeather, © 2014

See weather overviewHow to use our weather pages